| time (UTC) | temp C | wind direction | speed KPH | gust KPH | rain 1hr cm | rain 24hr cm | rain mn cm | humidity % | barometer mb |
| 20260505041554 | 22 | 193 | 19.3 | 32.2 | 0.00 | 0.00 | 0.00 | 26 | 947.7 |
| 20260505034553 | 22 | 153 | 9.7 | 29.0 | 0.00 | 0.00 | 0.00 | 25 | 947.7 |
| 20260505033052 | 22 | 147 | 22.5 | 32.2 | 0.00 | 0.00 | 0.00 | 25 | 947.5 |
| 20260505031558 | 23 | 124 | 12.9 | 29.0 | 0.00 | 0.00 | 0.00 | 25 | 947.3 |
| 20260505030057 | 23 | 150 | 22.5 | 37.0 | 0.00 | 0.00 | 0.00 | 24 | 947.0 |
| 20260505024553 | 23 | 171 | 20.9 | 33.8 | 0.00 | 0.00 | 0.00 | 24 | 946.8 |
| 20260505023051 | 23 | 143 | 19.3 | 33.8 | 0.00 | 0.00 | 0.00 | 26 | 946.7 |
| 20260505021550 | 24 | 147 | 19.3 | 32.2 | 0.00 | 0.00 | 0.00 | 26 | 946.7 |
| 20260505020051 | 24 | 163 | 17.7 | 33.8 | 0.00 | 0.00 | 0.00 | 26 | 946.8 |
| 20260505014602 | 25 | 149 | 14.5 | 25.7 | 0.00 | 0.00 | 0.00 | 26 | 946.8 |
| 20260505013047 | 24 | 182 | 14.5 | 33.8 | 0.00 | 0.00 | 0.00 | 27 | 946.8 |
| 20260505011551 | 25 | 155 | 16.1 | 30.6 | 0.00 | 0.00 | 0.00 | 26 | 946.8 |
| 20260505010045 | 24 | 169 | 16.1 | 25.7 | 0.00 | 0.00 | 0.00 | 27 | 946.9 |
| 20260505004545 | 25 | 170 | 19.3 | 27.4 | 0.00 | 0.00 | 0.00 | 27 | 947.0 |
| 20260505003044 | 25 | 201 | 16.1 | 25.7 | 0.00 | 0.00 | 0.00 | 27 | 947.1 |
| 20260505001546 | 25 | 16.1 | 32.2 | 0.00 | 0.00 | 0.00 | 25 | 947.3 | |
| 20260505000047 | 25 | 12.9 | 30.6 | 0.00 | 0.00 | 0.00 | 26 | 947.2 | |
| 20260504234542 | 25 | 16.1 | 29.0 | 0.00 | 0.00 | 0.00 | 23 | 947.2 | |
| 20260504233042 | 25 | 16.1 | 32.2 | 0.00 | 0.00 | 0.00 | 22 | 947.3 | |
| 20260504231541 | 25 | 179 | 14.5 | 29.0 | 0.00 | 0.00 | 0.00 | 25 | 947.5 |
| 20260504230046 | 25 | 189 | 12.9 | 33.8 | 0.00 | 0.00 | 0.00 | 25 | 947.6 |
| 20260504224546 | 25 | 145 | 16.1 | 33.8 | 0.00 | 0.00 | 0.00 | 28 | 947.7 |
| 20260504223039 | 24 | 136 | 20.9 | 35.4 | 0.00 | 0.00 | 0.00 | 29 | 948.0 |
| 20260504221539 | 24 | 16.1 | 29.0 | 0.00 | 0.00 | 0.00 | 28 | 948.0 | |
| 20260504220037 | 24 | 20.9 | 35.4 | 0.00 | 0.00 | 0.00 | 29 | 948.4 | |
| 20260504214536 | 24 | 22.5 | 33.8 | 0.00 | 0.00 | 0.00 | 27 | 948.5 | |
| 20260504213035 | 24 | 20.9 | 35.4 | 0.00 | 0.00 | 0.00 | 28 | 948.6 | |
| 20260504211535 | 24 | 20.9 | 32.2 | 0.00 | 0.00 | 0.00 | 26 | 948.8 | |
| 20260504210046 | 24 | 17.7 | 33.8 | 0.00 | 0.00 | 0.00 | 27 | 948.9 | |
| 20260504204551 | 24 | 20.9 | 33.8 | 0.00 | 0.00 | 0.00 | 28 | 949.1 | |
| 20260504203034 | 24 | 20.9 | 35.4 | 0.00 | 0.00 | 0.00 | 27 | 949.1 | |
| 20260504201532 | 24 | 24.1 | 37.0 | 0.00 | 0.00 | 0.00 | 28 | 949.1 | |
| 20260504200031 | 23 | 24.1 | 35.4 | 0.00 | 0.00 | 0.00 | 28 | 949.2 | |
| 20260504194531 | 23 | 19.3 | 37.0 | 0.00 | 0.00 | 0.00 | 29 | 949.4 | |
| 20260504193030 | 23 | 165 | 20.9 | 37.0 | 0.00 | 0.00 | 0.00 | 30 | 949.4 |
| 20260504191531 | 23 | 178 | 20.9 | 33.8 | 0.00 | 0.00 | 0.00 | 30 | 949.5 |
| 20260504190028 | 22 | 182 | 20.9 | 38.6 | 0.00 | 0.00 | 0.00 | 31 | 949.7 |
| 20260504184528 | 22 | 221 | 17.7 | 33.8 | 0.00 | 0.00 | 0.00 | 32 | 949.6 |
| 20260504183027 | 22 | 186 | 19.3 | 37.0 | 0.00 | 0.00 | 0.00 | 33 | 949.8 |
| 20260504181527 | 22 | 200 | 16.1 | 37.0 | 0.00 | 0.00 | 0.00 | 33 | 950.0 |
| 20260504180025 | 22 | 197 | 20.9 | 35.4 | 0.00 | 0.00 | 0.00 | 33 | 949.8 |
| 20260504174524 | 22 | 16.1 | 30.6 | 0.00 | 0.00 | 0.00 | 33 | 949.9 | |
| 20260504173023 | 22 | 20.9 | 33.8 | 0.00 | 0.00 | 0.00 | 33 | 949.5 | |
| 20260504171522 | 22 | 19.3 | 33.8 | 0.00 | 0.00 | 0.00 | 32 | 949.5 | |
| 20260504081509 | 26 | 221 | 20.9 | 33.8 | 0.00 | 0.00 | 0.00 | 25 | 946.2 |